PAA453 KMIA-SCEL

Flight info

Callsign PAA453
Flight time N/A
Altitude 31000
Route MIA2 GWAVA DCT URSUS UL780 LEPEG/N0494F330 UL780 BUXOS/N0492F350 UL780 MOXES/N0483F370 DCT NIGNA DCT SORTA UL780 SULNA DCT TOY UV208 SIMOK ANDES1
Aircraft L101/H-SDFHIRWXY/S

Departure

Time N/A
Airport Miami International Airport (KMIA)

Arrival

Time 2026-05-07 20:20
Airport Comodoro Arturo Merino Benítez International Airport (SCEL)
Time Latitude Longitude Altitude Speed Heading
2026-05-07 16:48 -8.12279 -79.10207 36990 ft 490 kts 169°
2026-05-07 16:49 -8.15568 -79.09294 36995 ft 490 kts 169°
2026-05-07 16:49 -8.22170 -79.07553 36996 ft 490 kts 170°
2026-05-07 16:50 -8.28784 -79.05843 36994 ft 491 kts 170°
2026-05-07 16:50 -8.35390 -79.04055 36974 ft 491 kts 169°
2026-05-07 16:51 -8.41975 -79.02272 36970 ft 490 kts 169°
2026-05-07 16:51 -8.48571 -79.00539 36968 ft 490 kts 170°
2026-05-07 16:52 -8.55133 -78.98798 36968 ft 490 kts 169°
2026-05-07 16:52 -8.61722 -78.97001 36988 ft 491 kts 169°
2026-05-07 16:53 -8.68327 -78.95202 36981 ft 491 kts 169°
2026-05-07 16:53 -8.74929 -78.93424 36977 ft 491 kts 170°
2026-05-07 16:54 -8.81536 -78.91697 36976 ft 491 kts 169°
2026-05-07 16:54 -8.87026 -78.90209 36975 ft 491 kts 169°
2026-05-07 16:55 -8.93618 -78.88384 36988 ft 491 kts 169°
2026-05-07 16:55 -9.00244 -78.86642 36973 ft 492 kts 170°
2026-05-07 16:56 -9.06863 -78.84828 36984 ft 493 kts 169°
2026-05-07 16:56 -9.16798 -78.82155 36980 ft 492 kts 170°
2026-05-07 16:57 -9.23423 -78.80372 36979 ft 492 kts 169°
2026-05-07 16:57 -9.30043 -78.78576 36982 ft 492 kts 169°
2026-05-07 16:58 -9.36672 -78.76770 36988 ft 493 kts 169°
2026-05-07 16:58 -9.43265 -78.75017 36988 ft 493 kts 169°
2026-05-07 16:59 -9.49896 -78.73213 36988 ft 493 kts 169°
2026-05-07 16:59 -9.56529 -78.71413 37002 ft 493 kts 169°
2026-05-07 17:00 -9.63164 -78.69623 37002 ft 493 kts 169°
2026-05-07 17:00 -9.69789 -78.67787 37050 ft 493 kts 169°
2026-05-07 17:01 -9.76427 -78.65999 37039 ft 493 kts 169°
2026-05-07 17:01 -9.83052 -78.64198 37038 ft 493 kts 169°
2026-05-07 17:02 -9.89682 -78.62426 37035 ft 493 kts 169°
2026-05-07 17:02 -9.96306 -78.60631 37027 ft 493 kts 169°
2026-05-07 17:03 -10.02940 -78.58835 37023 ft 493 kts 169°
2026-05-07 17:03 -10.09528 -78.57044 37019 ft 494 kts 169°
2026-05-07 17:04 -10.16173 -78.55261 37013 ft 494 kts 169°
2026-05-07 17:04 -10.22827 -78.53472 37002 ft 494 kts 169°
2026-05-07 17:05 -10.29474 -78.51646 37003 ft 495 kts 169°
2026-05-07 17:05 -10.36139 -78.49818 36999 ft 495 kts 169°
2026-05-07 17:06 -10.42787 -78.47987 36995 ft 495 kts 169°
2026-05-07 17:06 -10.49450 -78.46174 36987 ft 496 kts 169°
2026-05-07 17:07 -10.56119 -78.44355 36996 ft 496 kts 169°
2026-05-07 17:07 -10.62754 -78.42552 36992 ft 497 kts 169°
2026-05-07 17:08 -10.69428 -78.40736 37000 ft 496 kts 169°
2026-05-07 17:08 -10.76104 -78.38927 37000 ft 496 kts 169°
2026-05-07 17:09 -10.82793 -78.37113 37000 ft 497 kts 169°
2026-05-07 17:09 -10.89480 -78.35290 37003 ft 497 kts 169°
2026-05-07 17:10 -10.96172 -78.33460 37003 ft 497 kts 169°
2026-05-07 17:10 -11.02865 -78.31640 37005 ft 498 kts 168°
2026-05-07 17:11 -11.09498 -78.29795 37007 ft 498 kts 168°
2026-05-07 17:11 -11.16194 -78.27960 37004 ft 499 kts 169°
2026-05-07 17:12 -11.22912 -78.26140 37005 ft 500 kts 169°
2026-05-07 17:12 -11.29639 -78.24306 37003 ft 500 kts 169°
2026-05-07 17:13 -11.36354 -78.22468 37005 ft 500 kts 169°
2026-05-07 17:13 -11.43067 -78.20630 37007 ft 499 kts 169°
2026-05-07 17:14 -11.49741 -78.18804 37010 ft 499 kts 169°
2026-05-07 17:14 -11.56459 -78.16962 37007 ft 500 kts 169°
2026-05-07 17:15 -11.63168 -78.15123 37011 ft 499 kts 169°
2026-05-07 17:15 -11.69881 -78.13281 37011 ft 500 kts 169°
2026-05-07 17:16 -11.76592 -78.11436 37014 ft 499 kts 168°
2026-05-07 17:16 -11.83308 -78.09590 37015 ft 500 kts 168°
2026-05-07 17:17 -11.90040 -78.07738 37003 ft 501 kts 168°
2026-05-07 17:17 -11.96772 -78.05894 37011 ft 501 kts 168°
2026-05-07 17:18 -12.03512 -78.04042 37013 ft 501 kts 168°
2026-05-07 17:18 -12.10201 -78.02207 37013 ft 501 kts 168°
2026-05-07 17:19 -12.16937 -78.00335 37015 ft 502 kts 168°
2026-05-07 17:19 -12.23689 -77.98501 37012 ft 503 kts 169°
2026-05-07 17:20 -12.30445 -77.96623 37012 ft 503 kts 168°
2026-05-07 17:20 -12.37204 -77.94743 37007 ft 503 kts 169°
2026-05-07 17:21 -12.43959 -77.92889 37014 ft 503 kts 168°
2026-05-07 17:21 -12.50711 -77.91015 37020 ft 503 kts 168°
2026-05-07 17:22 -12.57470 -77.89154 37016 ft 504 kts 168°
2026-05-07 17:22 -12.64247 -77.87268 37019 ft 505 kts 168°
2026-05-07 17:23 -12.71043 -77.85408 37015 ft 505 kts 168°
2026-05-07 17:23 -12.77818 -77.83538 37017 ft 504 kts 168°
2026-05-07 17:24 -12.84591 -77.81645 37019 ft 504 kts 168°
2026-05-07 17:24 -12.91384 -77.79792 37015 ft 505 kts 168°
2026-05-07 17:25 -12.98136 -77.77929 37015 ft 506 kts 168°
2026-05-07 17:25 -13.04945 -77.76070 37011 ft 506 kts 168°
2026-05-07 17:26 -13.11727 -77.74105 37015 ft 507 kts 168°
2026-05-07 17:26 -13.18541 -77.72244 37016 ft 506 kts 169°
2026-05-07 17:27 -13.25346 -77.70366 37022 ft 506 kts 167°
2026-05-07 17:27 -13.32143 -77.68418 37017 ft 507 kts 168°
2026-05-07 17:28 -13.38980 -77.66601 37019 ft 507 kts 169°
2026-05-07 17:28 -13.45794 -77.64699 37015 ft 508 kts 167°
2026-05-07 17:29 -13.52602 -77.62759 37017 ft 507 kts 168°
2026-05-07 17:29 -13.59374 -77.60861 37018 ft 508 kts 168°
2026-05-07 17:30 -13.66179 -77.58928 37018 ft 508 kts 167°
2026-05-07 17:30 -13.73012 -77.57014 37020 ft 508 kts 168°
2026-05-07 17:31 -13.79843 -77.55135 37014 ft 508 kts 168°
2026-05-07 17:31 -13.86671 -77.53243 37018 ft 508 kts 167°
2026-05-07 17:32 -13.93480 -77.51323 37026 ft 507 kts 168°
2026-05-07 17:32 -13.99158 -77.49786 37025 ft 507 kts 169°
2026-05-07 17:33 -14.07099 -77.47599 37028 ft 508 kts 167°
2026-05-07 17:33 -14.13915 -77.45621 37011 ft 508 kts 167°
2026-05-07 17:34 -14.20743 -77.43700 37030 ft 508 kts 169°
2026-05-07 17:34 -14.27587 -77.41877 37021 ft 508 kts 168°
2026-05-07 17:35 -14.34414 -77.39977 37021 ft 508 kts 168°
2026-05-07 17:35 -14.41240 -77.38043 37022 ft 508 kts 168°
2026-05-07 17:36 -14.48057 -77.36104 37017 ft 509 kts 167°
2026-05-07 17:36 -14.54833 -77.34196 37017 ft 508 kts 168°
2026-05-07 17:37 -14.61673 -77.32326 37022 ft 508 kts 168°
2026-05-07 17:37 -14.68501 -77.30410 37021 ft 508 kts 168°
2026-05-07 17:38 -14.75339 -77.28535 37016 ft 508 kts 168°
2026-05-07 17:38 -14.82164 -77.26629 37021 ft 508 kts 168°
2026-05-07 17:39 -14.89009 -77.24778 37017 ft 508 kts 168°
2026-05-07 17:39 -14.95838 -77.22873 37012 ft 508 kts 167°
2026-05-07 17:40 -15.02658 -77.20916 37022 ft 508 kts 168°
2026-05-07 17:40 -15.09489 -77.19056 37017 ft 508 kts 168°
2026-05-07 17:41 -15.16320 -77.17121 37023 ft 509 kts 167°
2026-05-07 17:41 -15.23142 -77.15183 37019 ft 508 kts 168°
2026-05-07 17:42 -15.28821 -77.13638 37033 ft 508 kts 169°
2026-05-07 17:42 -15.35668 -77.11797 37023 ft 508 kts 169°
2026-05-07 17:43 -15.43611 -77.09679 37020 ft 507 kts 169°
2026-05-07 17:43 -15.49344 -77.08156 37020 ft 507 kts 169°
2026-05-07 17:44 -15.56181 -77.06314 37025 ft 507 kts 168°
2026-05-07 17:44 -15.62980 -77.04502 37032 ft 507 kts 169°
2026-05-07 17:45 -15.69821 -77.02687 37020 ft 507 kts 169°
2026-05-07 17:45 -15.76646 -77.00857 37026 ft 507 kts 169°
2026-05-07 17:46 -15.83477 -76.99015 37026 ft 507 kts 168°
2026-05-07 17:46 -15.90299 -76.97147 37026 ft 507 kts 169°
2026-05-07 17:47 -15.97132 -76.95306 37034 ft 507 kts 169°
2026-05-07 17:47 -16.03985 -76.93575 37026 ft 506 kts 170°
2026-05-07 17:48 -16.10821 -76.91780 37031 ft 507 kts 168°
2026-05-07 17:48 -16.17637 -76.89814 37026 ft 508 kts 168°
2026-05-07 17:49 -16.24417 -76.87950 37032 ft 507 kts 169°
2026-05-07 17:49 -16.31258 -76.86116 37034 ft 507 kts 168°
2026-05-07 17:50 -16.38076 -76.84236 37035 ft 507 kts 168°
2026-05-07 17:50 -16.44904 -76.82402 37028 ft 507 kts 169°
2026-05-07 17:51 -16.51727 -76.80544 37036 ft 507 kts 169°
2026-05-07 17:51 -16.58559 -76.78723 37036 ft 507 kts 169°
2026-05-07 17:52 -16.65379 -76.76825 37044 ft 507 kts 169°
2026-05-07 17:52 -16.72209 -76.74977 37039 ft 507 kts 169°
2026-05-07 17:53 -16.79006 -76.73153 37033 ft 507 kts 170°
2026-05-07 17:53 -16.85852 -76.71359 37040 ft 508 kts 168°
2026-05-07 17:54 -16.92667 -76.69384 37041 ft 508 kts 168°
2026-05-07 17:54 -16.99498 -76.67485 37054 ft 508 kts 169°
2026-05-07 17:55 -17.06351 -76.65637 37038 ft 508 kts 169°
2026-05-07 17:55 -17.13206 -76.63822 37041 ft 508 kts 169°
2026-05-07 17:56 -17.20085 -76.62005 37045 ft 509 kts 169°
2026-05-07 17:56 -17.26936 -76.60129 37042 ft 509 kts 168°
2026-05-07 17:57 -17.32624 -76.58535 37041 ft 509 kts 168°
2026-05-07 17:57 -17.40656 -76.56349 37038 ft 511 kts 169°
2026-05-07 17:58 -17.47530 -76.54445 37047 ft 511 kts 169°
2026-05-07 17:58 -17.54407 -76.52556 37043 ft 511 kts 168°
2026-05-07 17:59 -17.61276 -76.50590 37047 ft 511 kts 168°
2026-05-07 17:59 -17.68116 -76.48725 37053 ft 512 kts 170°
2026-05-07 18:00 -17.75039 -76.46940 37050 ft 512 kts 169°
2026-05-07 18:00 -17.81936 -76.45027 37055 ft 513 kts 169°
2026-05-07 18:01 -17.88838 -76.43094 37054 ft 513 kts 169°
2026-05-07 18:01 -17.95751 -76.41234 37067 ft 512 kts 170°
2026-05-07 18:02 -18.06104 -76.38368 37061 ft 513 kts 168°
2026-05-07 18:03 -18.13001 -76.36459 37057 ft 512 kts 170°
2026-05-07 18:03 -18.19908 -76.34628 37053 ft 512 kts 169°
2026-05-07 18:04 -18.26802 -76.32699 37055 ft 512 kts 169°
2026-05-07 18:04 -18.33701 -76.30803 37060 ft 512 kts 169°
2026-05-07 18:05 -18.40530 -76.28783 37054 ft 513 kts 167°
2026-05-07 18:05 -18.47393 -76.26712 37056 ft 513 kts 168°
2026-05-07 18:06 -18.54263 -76.24657 37059 ft 513 kts 168°
2026-05-07 18:06 -18.61140 -76.22660 37077 ft 512 kts 169°
2026-05-07 18:07 -18.68022 -76.20678 37063 ft 513 kts 168°
2026-05-07 18:07 -18.74885 -76.18590 37059 ft 513 kts 168°
2026-05-07 18:08 -18.81740 -76.16515 37059 ft 513 kts 168°
2026-05-07 18:08 -18.88617 -76.14496 37054 ft 513 kts 168°
2026-05-07 18:09 -18.95489 -76.12484 37074 ft 513 kts 168°
2026-05-07 18:09 -19.02347 -76.10422 37071 ft 513 kts 168°
2026-05-07 18:10 -19.09211 -76.08334 37063 ft 513 kts 168°
2026-05-07 18:10 -19.16081 -76.06294 37064 ft 512 kts 169°
2026-05-07 18:11 -19.22915 -76.04324 37063 ft 513 kts 169°
2026-05-07 18:11 -19.29786 -76.02260 37065 ft 513 kts 169°
2026-05-07 18:12 -19.36649 -76.00203 37063 ft 512 kts 168°
2026-05-07 18:12 -19.43493 -75.98130 37068 ft 511 kts 169°
2026-05-07 18:13 -19.50349 -75.96115 37065 ft 512 kts 169°
2026-05-07 18:13 -19.57206 -75.94084 37069 ft 511 kts 169°
2026-05-07 18:14 -19.64038 -75.91962 37067 ft 511 kts 168°
2026-05-07 18:14 -19.70873 -75.89914 37069 ft 510 kts 170°
2026-05-07 18:15 -19.77716 -75.87961 37068 ft 510 kts 169°
2026-05-07 18:15 -19.84551 -75.85892 37068 ft 511 kts 168°
2026-05-07 18:16 -19.91340 -75.83841 37080 ft 510 kts 169°
2026-05-07 18:16 -19.98158 -75.81803 37071 ft 509 kts 169°
2026-05-07 18:17 -20.04962 -75.79725 37076 ft 508 kts 169°
2026-05-07 18:17 -20.11763 -75.77660 37074 ft 508 kts 169°
2026-05-07 18:18 -20.18579 -75.75631 37073 ft 508 kts 169°
2026-05-07 18:18 -20.25386 -75.73579 37075 ft 508 kts 169°
2026-05-07 18:19 -20.32180 -75.71521 37082 ft 506 kts 169°
2026-05-07 18:19 -20.38910 -75.69484 37076 ft 506 kts 169°
2026-05-07 18:20 -20.45690 -75.67421 37084 ft 506 kts 169°
2026-05-07 18:20 -20.52475 -75.65379 37065 ft 506 kts 169°
2026-05-07 18:21 -20.59247 -75.63330 37079 ft 505 kts 169°
2026-05-07 18:21 -20.66006 -75.61272 37078 ft 504 kts 169°
2026-05-07 18:22 -20.72754 -75.59221 37076 ft 504 kts 169°
2026-05-07 18:22 -20.79496 -75.57171 37077 ft 504 kts 169°
2026-05-07 18:23 -20.86206 -75.55125 37093 ft 504 kts 169°
2026-05-07 18:23 -20.92952 -75.53075 37084 ft 502 kts 169°
2026-05-07 18:24 -20.99665 -75.51029 37088 ft 501 kts 169°
2026-05-07 18:24 -21.06377 -75.48982 37083 ft 501 kts 169°
2026-05-07 18:25 -21.13097 -75.46930 37083 ft 502 kts 169°
2026-05-07 18:25 -21.19818 -75.44874 37087 ft 502 kts 169°
2026-05-07 18:26 -21.26516 -75.42828 37086 ft 500 kts 169°
2026-05-07 18:26 -21.33205 -75.40760 37081 ft 500 kts 169°
2026-05-07 18:27 -21.39892 -75.38687 37085 ft 500 kts 169°
2026-05-07 18:27 -21.46583 -75.36629 37080 ft 500 kts 169°
2026-05-07 18:28 -21.53272 -75.34574 37081 ft 500 kts 170°
2026-05-07 18:28 -21.59928 -75.32535 37084 ft 501 kts 169°
2026-05-07 18:29 -21.66609 -75.30424 37087 ft 500 kts 169°
2026-05-07 18:29 -21.72220 -75.28688 37082 ft 500 kts 169°
2026-05-07 18:30 -21.78905 -75.26588 37107 ft 500 kts 169°
2026-05-07 18:30 -21.85554 -75.24562 37079 ft 498 kts 170°
2026-05-07 18:31 -21.92230 -75.22549 37089 ft 499 kts 169°
2026-05-07 18:31 -21.98884 -75.20419 37082 ft 498 kts 169°
2026-05-07 18:32 -22.05557 -75.18389 37088 ft 498 kts 169°
2026-05-07 18:32 -22.12224 -75.16303 37103 ft 498 kts 169°
2026-05-07 18:33 -22.18870 -75.14242 37093 ft 496 kts 169°
2026-05-07 18:33 -22.25489 -75.12155 37093 ft 495 kts 169°
2026-05-07 18:34 -22.32066 -75.10122 37091 ft 495 kts 169°
2026-05-07 18:34 -22.38691 -75.08072 37090 ft 495 kts 169°
2026-05-07 18:35 -22.45316 -75.06020 37092 ft 494 kts 169°
2026-05-07 18:35 -22.51907 -75.04001 37089 ft 491 kts 169°
2026-05-07 18:36 -22.58494 -75.02037 37096 ft 491 kts 168°
2026-05-07 18:36 -22.65042 -74.99906 37095 ft 491 kts 168°
2026-05-07 18:37 -22.71609 -74.97856 37106 ft 491 kts 168°
2026-05-07 18:37 -22.78162 -74.95776 37097 ft 488 kts 168°
2026-05-07 18:38 -22.84674 -74.93761 37096 ft 486 kts 167°
2026-05-07 18:38 -22.91167 -74.91687 37105 ft 486 kts 168°
2026-05-07 18:39 -22.97632 -74.89690 37098 ft 486 kts 168°
2026-05-07 18:39 -23.04126 -74.87605 37113 ft 486 kts 167°
2026-05-07 18:40 -23.10587 -74.85577 37103 ft 481 kts 167°
2026-05-07 18:40 -23.17006 -74.83522 37109 ft 480 kts 167°
2026-05-07 18:41 -23.23439 -74.81533 37108 ft 480 kts 167°
2026-05-07 18:41 -23.29857 -74.79510 37112 ft 480 kts 167°
2026-05-07 18:42 -23.36273 -74.77476 37107 ft 478 kts 167°
2026-05-07 18:42 -23.42624 -74.75476 37106 ft 473 kts 167°
2026-05-07 18:43 -23.48936 -74.73518 37108 ft 472 kts 167°
2026-05-07 18:43 -23.55256 -74.71512 37113 ft 473 kts 167°
2026-05-07 18:44 -23.61571 -74.69505 37101 ft 473 kts 166°
2026-05-07 18:44 -23.67874 -74.67530 37104 ft 468 kts 167°
2026-05-07 18:45 -23.74099 -74.65588 37119 ft 464 kts 166°
2026-05-07 18:45 -23.80253 -74.63600 37109 ft 463 kts 166°
2026-05-07 18:46 -23.86436 -74.61596 37120 ft 462 kts 167°
2026-05-07 18:46 -23.92624 -74.59594 37119 ft 465 kts 165°
2026-05-07 18:47 -23.98814 -74.57566 37106 ft 462 kts 166°
2026-05-07 18:47 -24.05000 -74.55681 37101 ft 461 kts 166°
2026-05-07 18:48 -24.11152 -74.53734 37112 ft 459 kts 166°
2026-05-07 18:48 -24.17256 -74.51822 37118 ft 460 kts 166°
2026-05-07 18:49 -24.23397 -74.49831 37125 ft 461 kts 165°
2026-05-07 18:49 -24.29569 -74.47865 37113 ft 462 kts 165°
2026-05-07 18:50 -24.35697 -74.45782 37113 ft 461 kts 165°
2026-05-07 18:50 -24.41861 -74.43846 37103 ft 459 kts 166°
2026-05-07 18:51 -24.47997 -74.41919 37120 ft 459 kts 166°
2026-05-07 18:51 -24.54122 -74.39997 37119 ft 456 kts 166°
2026-05-07 18:52 -24.60232 -74.38118 37117 ft 457 kts 165°
2026-05-07 18:52 -24.66306 -74.36112 37116 ft 460 kts 165°
2026-05-07 18:53 -24.72445 -74.34157 37105 ft 458 kts 166°
2026-05-07 18:53 -24.78585 -74.32223 37119 ft 461 kts 166°
2026-05-07 18:54 -24.84721 -74.30169 37103 ft 459 kts 166°
2026-05-07 18:54 -24.90823 -74.28229 37112 ft 454 kts 166°
2026-05-07 18:55 -24.96901 -74.26297 37117 ft 455 kts 166°
2026-05-07 18:55 -25.03018 -74.24373 37127 ft 457 kts 166°
2026-05-07 18:56 -25.09125 -74.22400 37111 ft 455 kts 166°
2026-05-07 18:56 -25.15185 -74.20394 37108 ft 453 kts 165°
2026-05-07 18:57 -25.21192 -74.18501 37120 ft 451 kts 165°
2026-05-07 18:57 -25.27221 -74.16533 37122 ft 452 kts 166°
2026-05-07 18:58 -25.33275 -74.14648 37116 ft 452 kts 165°
2026-05-07 18:58 -25.39314 -74.12709 37132 ft 451 kts 165°
2026-05-07 18:59 -25.45331 -74.10808 37122 ft 447 kts 165°
2026-05-07 18:59 -25.51293 -74.08842 37122 ft 446 kts 165°
2026-05-07 19:00 -25.57232 -74.06871 37113 ft 446 kts 165°
2026-05-07 19:00 -25.63202 -74.04987 37123 ft 446 kts 165°
2026-05-07 19:01 -25.69118 -74.03034 37133 ft 446 kts 165°
2026-05-07 19:01 -25.75049 -74.01119 37117 ft 441 kts 165°
2026-05-07 19:02 -25.80920 -73.99207 37122 ft 440 kts 165°
2026-05-07 19:02 -25.86797 -73.97269 37122 ft 441 kts 165°
2026-05-07 19:03 -25.92687 -73.95334 37126 ft 441 kts 165°
2026-05-07 19:03 -25.98589 -73.93450 37128 ft 441 kts 166°
2026-05-07 19:04 -26.04457 -73.91573 37120 ft 437 kts 165°
2026-05-07 19:04 -26.10278 -73.89612 37122 ft 437 kts 165°
2026-05-07 19:05 -26.16118 -73.87731 37123 ft 437 kts 165°
2026-05-07 19:05 -26.21954 -73.85801 37122 ft 437 kts 165°
2026-05-07 19:06 -26.27777 -73.83852 37126 ft 437 kts 165°
2026-05-07 19:06 -26.36450 -73.81068 37124 ft 433 kts 165°
2026-05-07 19:07 -26.42232 -73.79162 37124 ft 433 kts 165°
2026-05-07 19:07 -26.48022 -73.77259 37119 ft 433 kts 165°
2026-05-07 19:08 -26.53804 -73.75341 37133 ft 434 kts 165°
2026-05-07 19:08 -26.59588 -73.73427 37118 ft 432 kts 165°
2026-05-07 19:09 -26.65355 -73.71540 37127 ft 432 kts 165°
2026-05-07 19:09 -26.71114 -73.69616 37121 ft 432 kts 165°
2026-05-07 19:10 -26.76878 -73.67703 37125 ft 432 kts 165°
2026-05-07 19:10 -26.82616 -73.65812 37132 ft 432 kts 165°
2026-05-07 19:11 -26.88389 -73.63917 37126 ft 431 kts 165°
2026-05-07 19:11 -26.94146 -73.62015 37119 ft 431 kts 165°
2026-05-07 19:12 -26.99890 -73.60063 37127 ft 431 kts 165°
2026-05-07 19:12 -27.05649 -73.58149 37122 ft 431 kts 165°
2026-05-07 19:13 -27.11411 -73.56265 37135 ft 431 kts 166°
2026-05-07 19:13 -27.17161 -73.54331 37128 ft 431 kts 165°
2026-05-07 19:14 -27.22858 -73.52424 37122 ft 430 kts 166°
2026-05-07 19:14 -27.28601 -73.50528 37117 ft 430 kts 166°
2026-05-07 19:15 -27.34342 -73.48623 37120 ft 430 kts 166°
2026-05-07 19:15 -27.40089 -73.46709 37113 ft 430 kts 166°
2026-05-07 19:16 -27.44858 -73.45143 37122 ft 430 kts 166°
2026-05-07 19:16 -27.50590 -73.43222 37119 ft 430 kts 165°
2026-05-07 19:17 -27.56308 -73.41236 37127 ft 430 kts 166°
2026-05-07 19:17 -27.62059 -73.39379 37122 ft 430 kts 166°
2026-05-07 19:18 -27.67788 -73.37425 37134 ft 430 kts 165°
2026-05-07 19:18 -27.73507 -73.35435 37119 ft 430 kts 166°
2026-05-07 19:19 -27.78948 -73.32636 37131 ft 434 kts 151°
2026-05-07 19:19 -27.84069 -73.29006 37128 ft 435 kts 154°
2026-05-07 19:20 -27.89252 -73.25554 37135 ft 436 kts 153°
2026-05-07 19:20 -27.94404 -73.21897 37130 ft 437 kts 152°
2026-05-07 19:21 -27.99522 -73.18179 37121 ft 437 kts 152°
2026-05-07 19:21 -28.04642 -73.14458 37126 ft 437 kts 152°
2026-05-07 19:22 -28.09764 -73.10752 37128 ft 437 kts 152°
2026-05-07 19:22 -28.14838 -73.07039 37133 ft 437 kts 152°
2026-05-07 19:23 -28.19974 -73.03274 37129 ft 437 kts 152°
2026-05-07 19:23 -28.25080 -72.99531 37127 ft 437 kts 152°
2026-05-07 19:24 -28.30155 -72.95814 37126 ft 437 kts 152°
2026-05-07 19:24 -28.35252 -72.92059 37128 ft 437 kts 152°
2026-05-07 19:25 -28.40354 -72.88324 37125 ft 436 kts 152°
2026-05-07 19:25 -28.45444 -72.84583 37134 ft 436 kts 152°
2026-05-07 19:26 -28.50529 -72.80832 37123 ft 435 kts 152°
2026-05-07 19:26 -28.55620 -72.77086 37116 ft 436 kts 152°
2026-05-07 19:27 -28.60705 -72.73328 37123 ft 436 kts 152°
2026-05-07 19:27 -28.65783 -72.69565 37119 ft 436 kts 152°
2026-05-07 19:28 -28.70873 -72.65816 37129 ft 436 kts 152°
2026-05-07 19:28 -28.75947 -72.62050 37120 ft 434 kts 152°
2026-05-07 19:29 -28.80982 -72.58319 37124 ft 435 kts 152°
2026-05-07 19:29 -28.86041 -72.54555 37122 ft 433 kts 152°
2026-05-07 19:30 -28.91095 -72.50801 37115 ft 433 kts 152°
2026-05-07 19:30 -28.96146 -72.47044 37132 ft 433 kts 153°
2026-05-07 19:31 -29.01188 -72.43289 37120 ft 432 kts 152°
2026-05-07 19:31 -29.06211 -72.39524 37116 ft 431 kts 153°
2026-05-07 19:32 -29.11242 -72.35777 37118 ft 432 kts 153°
2026-05-07 19:32 -29.16242 -72.32049 37115 ft 432 kts 153°
2026-05-07 19:33 -29.21279 -72.28280 37127 ft 432 kts 153°
2026-05-07 19:33 -29.26304 -72.24509 37118 ft 430 kts 153°
2026-05-07 19:34 -29.31311 -72.20765 37114 ft 430 kts 153°
2026-05-07 19:34 -29.36311 -72.16992 37108 ft 430 kts 153°
2026-05-07 19:35 -29.41319 -72.13233 37112 ft 430 kts 153°
2026-05-07 19:35 -29.46329 -72.09469 37113 ft 430 kts 153°
2026-05-07 19:36 -29.51321 -72.05684 37106 ft 430 kts 153°
2026-05-07 19:36 -29.56298 -72.01887 37103 ft 429 kts 153°
2026-05-07 19:37 -29.61254 -71.98148 37110 ft 429 kts 153°
2026-05-07 19:37 -29.66243 -71.94396 37092 ft 429 kts 153°
2026-05-07 19:38 -29.71252 -71.90680 37137 ft 429 kts 154°
2026-05-07 19:38 -29.76227 -71.86866 37094 ft 429 kts 153°
2026-05-07 19:39 -29.81179 -71.83022 37088 ft 429 kts 153°
2026-05-07 19:39 -29.86154 -71.79241 37092 ft 428 kts 154°
2026-05-07 19:40 -29.91159 -71.75504 37085 ft 428 kts 154°
2026-05-07 19:40 -29.96147 -71.71745 37086 ft 428 kts 153°
2026-05-07 19:41 -30.01112 -71.67940 37079 ft 429 kts 153°
2026-05-07 19:41 -30.06040 -71.64125 37073 ft 429 kts 153°
2026-05-07 19:42 -30.11023 -71.60339 37079 ft 428 kts 154°
2026-05-07 19:42 -30.16008 -71.56552 37073 ft 429 kts 153°
2026-05-07 19:43 -30.20976 -71.52711 37100 ft 430 kts 153°
2026-05-07 19:43 -30.25940 -71.48875 37073 ft 429 kts 153°
2026-05-07 19:44 -30.31017 -71.45367 37080 ft 422 kts 160°
2026-05-07 19:44 -30.36293 -71.42394 37075 ft 422 kts 160°
2026-05-07 19:45 -30.41560 -71.39381 37081 ft 422 kts 160°
2026-05-07 19:45 -30.46802 -71.36286 37090 ft 423 kts 160°
2026-05-07 19:46 -30.52077 -71.33283 37091 ft 421 kts 161°
2026-05-07 19:46 -30.57371 -71.30333 37086 ft 424 kts 160°
2026-05-07 19:47 -30.62635 -71.27261 37076 ft 423 kts 160°
2026-05-07 19:47 -30.67873 -71.24261 37078 ft 422 kts 160°
2026-05-07 19:48 -30.73111 -71.21116 37079 ft 423 kts 160°
2026-05-07 19:48 -30.78371 -71.18018 37088 ft 424 kts 160°
2026-05-07 19:49 -30.83669 -71.15030 37079 ft 423 kts 161°
2026-05-07 19:49 -30.88930 -71.11930 37078 ft 423 kts 160°
2026-05-07 19:50 -30.94171 -71.08772 37104 ft 424 kts 160°
2026-05-07 19:50 -30.99443 -71.05725 37093 ft 422 kts 161°
2026-05-07 19:51 -31.04690 -71.02647 37088 ft 422 kts 160°
2026-05-07 19:51 -31.09918 -70.99639 37114 ft 421 kts 161°
2026-05-07 19:52 -31.15174 -70.96603 37107 ft 422 kts 160°
2026-05-07 19:52 -31.20432 -70.93540 37131 ft 421 kts 161°
2026-05-07 19:53 -31.25705 -70.90549 37126 ft 421 kts 161°
2026-05-07 19:53 -31.30965 -70.87563 37143 ft 415 kts 169°
2026-05-07 19:54 -31.33746 -70.86946 37116 ft 401 kts 181°
2026-05-07 19:54 -31.36517 -70.86848 37150 ft 398 kts 182°
2026-05-07 19:54 -31.42096 -70.86281 37157 ft 404 kts 178°
2026-05-07 19:55 -31.47699 -70.85720 37173 ft 402 kts 182°
2026-05-07 19:55 -31.53266 -70.85572 37166 ft 399 kts 184°
2026-05-07 19:56 -31.58815 -70.85483 37163 ft 397 kts 183°
2026-05-07 19:56 -31.64363 -70.85240 37008 ft 404 kts 181°
2026-05-07 19:57 -31.67177 -70.85038 36379 ft 403 kts 181°
2026-05-07 19:57 -31.69952 -70.84834 35766 ft 395 kts 181°
2026-05-07 19:57 -31.72628 -70.84651 35169 ft 387 kts 182°
2026-05-07 19:57 -31.75306 -70.84491 34589 ft 384 kts 182°
2026-05-07 19:58 -31.77978 -70.84356 33991 ft 385 kts 182°
2026-05-07 19:58 -31.80670 -70.84242 33334 ft 388 kts 183°
2026-05-07 19:58 -31.83375 -70.84145 32687 ft 390 kts 183°
2026-05-07 19:58 -31.86087 -70.84062 32077 ft 391 kts 183°
2026-05-07 19:59 -31.88807 -70.83991 31464 ft 391 kts 183°
2026-05-07 19:59 -31.91538 -70.83932 30865 ft 392 kts 184°
2026-05-07 19:59 -31.94267 -70.83883 30320 ft 394 kts 184°
2026-05-07 19:59 -31.97018 -70.83843 29646 ft 395 kts 184°
2026-05-07 20:00 -31.99770 -70.83810 28914 ft 397 kts 184°
2026-05-07 20:00 -32.02530 -70.83783 28161 ft 393 kts 184°
2026-05-07 20:00 -32.05230 -70.83757 27449 ft 383 kts 185°
2026-05-07 20:00 -32.07876 -70.83743 26753 ft 379 kts 185°
2026-05-07 20:01 -32.10497 -70.83733 26085 ft 376 kts 185°
2026-05-07 20:01 -32.13113 -70.83729 25438 ft 375 kts 186°
2026-05-07 20:01 -32.15720 -70.83729 24800 ft 375 kts 186°
2026-05-07 20:01 -32.18303 -70.83729 24148 ft 365 kts 186°
2026-05-07 20:02 -32.20807 -70.83721 23519 ft 355 kts 186°
2026-05-07 20:02 -32.23242 -70.83717 22783 ft 345 kts 186°
2026-05-07 20:02 -32.25582 -70.83719 22076 ft 336 kts 186°
2026-05-07 20:02 -32.27899 -70.83723 21383 ft 330 kts 186°
2026-05-07 20:03 -32.30182 -70.83728 20703 ft 327 kts 186°
2026-05-07 20:03 -32.32458 -70.83734 20034 ft 327 kts 186°
2026-05-07 20:03 -32.34729 -70.83736 19326 ft 326 kts 185°
2026-05-07 20:03 -32.36991 -70.83736 18604 ft 323 kts 185°
2026-05-07 20:04 -32.39224 -70.83733 17781 ft 318 kts 184°
2026-05-07 20:04 -32.41422 -70.83724 16951 ft 314 kts 183°
2026-05-07 20:04 -32.43602 -70.83707 16188 ft 313 kts 182°
2026-05-07 20:04 -32.45789 -70.83689 15411 ft 313 kts 182°
2026-05-07 20:05 -32.47965 -70.83670 14643 ft 312 kts 181°
2026-05-07 20:05 -32.49403 -70.83655 14153 ft 312 kts 181°
2026-05-07 20:05 -32.51570 -70.83637 13332 ft 311 kts 180°
2026-05-07 20:05 -32.53733 -70.83624 12490 ft 311 kts 180°
2026-05-07 20:06 -32.55899 -70.83615 11675 ft 311 kts 180°
2026-05-07 20:06 -32.58690 -70.83611 11160 ft 292 kts 179°
2026-05-07 20:06 -32.60038 -70.83611 10941 ft 281 kts 179°
2026-05-07 20:06 -32.61955 -70.83613 10638 ft 271 kts 179°
2026-05-07 20:07 -32.63808 -70.83618 10411 ft 260 kts 179°
2026-05-07 20:07 -32.65566 -70.83623 10276 ft 252 kts 179°
2026-05-07 20:07 -32.67307 -70.83627 10255 ft 252 kts 179°
2026-05-07 20:07 -32.69089 -70.83637 10261 ft 260 kts 179°
2026-05-07 20:08 -32.70912 -70.83644 10124 ft 264 kts 179°
2026-05-07 20:08 -32.72750 -70.83649 9803 ft 264 kts 179°
2026-05-07 20:08 -32.74573 -70.83650 9437 ft 260 kts 179°
2026-05-07 20:08 -32.76365 -70.83648 9121 ft 255 kts 179°
2026-05-07 20:09 -32.78136 -70.83624 8808 ft 254 kts 176°
2026-05-07 20:09 -32.79906 -70.83446 8394 ft 258 kts 173°
2026-05-07 20:09 -32.81688 -70.83218 8047 ft 253 kts 173°
2026-05-07 20:10 -32.85176 -70.82818 7454 ft 251 kts 175°
2026-05-07 20:10 -32.86905 -70.82649 7292 ft 248 kts 175°
2026-05-07 20:10 -32.88624 -70.82500 7241 ft 249 kts 176°
2026-05-07 20:10 -32.90353 -70.82365 7201 ft 246 kts 176°
2026-05-07 20:11 -32.92000 -70.82250 7196 ft 230 kts 176°
2026-05-07 20:11 -32.93585 -70.82150 7237 ft 227 kts 177°
2026-05-07 20:11 -32.95181 -70.82059 7252 ft 230 kts 177°
2026-05-07 20:11 -32.96781 -70.81975 7225 ft 230 kts 179°
2026-05-07 20:12 -32.98381 -70.82011 7226 ft 230 kts 182°
2026-05-07 20:12 -32.99985 -70.82072 7208 ft 230 kts 181°
2026-05-07 20:12 -33.01583 -70.82091 7211 ft 229 kts 180°
2026-05-07 20:12 -33.03186 -70.82078 7123 ft 231 kts 179°
2026-05-07 20:13 -33.04762 -70.82037 7013 ft 229 kts 179°
2026-05-07 20:13 -33.06346 -70.81976 6926 ft 225 kts 178°
2026-05-07 20:13 -33.07887 -70.81909 6765 ft 216 kts 178°
2026-05-07 20:13 -33.09333 -70.81827 6659 ft 201 kts 177°
2026-05-07 20:14 -33.10699 -70.81746 6735 ft 189 kts 178°
2026-05-07 20:14 -33.11970 -70.81672 7014 ft 182 kts 177°
2026-05-07 20:14 -33.13252 -70.81600 6963 ft 187 kts 178°
2026-05-07 20:14 -33.14563 -70.81535 6656 ft 189 kts 178°
2026-05-07 20:15 -33.15875 -70.81466 6216 ft 188 kts 178°
2026-05-07 20:15 -33.17171 -70.81395 5785 ft 184 kts 178°
2026-05-07 20:15 -33.18442 -70.81329 5374 ft 181 kts 178°
2026-05-07 20:15 -33.19681 -70.81267 5084 ft 176 kts 178°
2026-05-07 20:16 -33.20892 -70.81205 4857 ft 174 kts 177°
2026-05-07 20:16 -33.22099 -70.81143 4591 ft 174 kts 177°
2026-05-07 20:16 -33.23308 -70.81083 4337 ft 175 kts 177°
2026-05-07 20:16 -33.24526 -70.81022 4116 ft 176 kts 178°
2026-05-07 20:17 -33.25712 -70.80960 3853 ft 161 kts 178°
2026-05-07 20:17 -33.26800 -70.80907 3576 ft 156 kts 179°
2026-05-07 20:17 -33.27877 -70.80850 3594 ft 157 kts 178°
2026-05-07 20:17 -33.29006 -70.80792 3425 ft 164 kts 178°
2026-05-07 20:18 -33.30147 -70.80733 3045 ft 163 kts 178°
2026-05-07 20:18 -33.31269 -70.80674 2693 ft 159 kts 177°
2026-05-07 20:18 -33.32363 -70.80617 2699 ft 158 kts 177°
2026-05-07 20:18 -33.33474 -70.80561 2417 ft 165 kts 178°
2026-05-07 20:19 -33.34612 -70.80508 2051 ft 161 kts 177°
2026-05-07 20:19 -33.35705 -70.80446 1882 ft 157 kts 176°
2026-05-07 20:19 -33.36795 -70.80395 1708 ft 157 kts 177°
2026-05-07 20:19 -33.37867 -70.80337 1578 ft 141 kts 177°
2026-05-07 20:20 -33.38649 -70.80297 1579 ft 89 kts 177°
2026-05-07 20:20 -33.39126 -70.80273 1578 ft 47 kts 173°
2026-05-07 20:20 -33.39326 -70.80201 1576 ft 21 kts 153°
2026-05-07 20:20 -33.39454 -70.80104 1572 ft 19 kts 145°
2026-05-07 20:21 -33.39523 -70.80011 1570 ft 13 kts 105°
2026-05-07 20:21 -33.39529 -70.79985 1570 ft 2 kts 110°
2026-05-07 20:21 -33.39543 -70.79963 1570 ft 5 kts 133°
2026-05-07 20:21 -33.39580 -70.79940 1570 ft 7 kts 165°
2026-05-07 20:22 -33.39641 -70.79936 1570 ft 10 kts 179°
2026-05-07 20:22 -33.39723 -70.79932 1570 ft 13 kts 177°
2026-05-07 20:22 -33.39824 -70.79925 1570 ft 16 kts 176°
2026-05-07 20:22 -33.39941 -70.79915 1570 ft 18 kts 175°
2026-05-07 20:23 -33.40072 -70.79904 1570 ft 20 kts 178°
2026-05-07 20:23 -33.40217 -70.79896 1570 ft 22 kts 177°
2026-05-07 20:23 -33.40374 -70.79886 1570 ft 23 kts 177°
2026-05-07 20:23 -33.40478 -70.79851 1570 ft 12 kts 116°
2026-05-07 20:24 -33.40480 -70.79770 1570 ft 8 kts 89°
2026-05-07 20:24 -33.40479 -70.79704 1569 ft 5 kts 85°
2026-05-07 20:24 -33.40476 -70.79690 1569 ft 3 kts 69°
2026-05-07 20:24 -33.40467 -70.79677 1569 ft 3 kts 45°
2026-05-07 20:25 -33.40438 -70.79668 1569 ft 6 kts 353°
2026-05-07 20:25 -33.40408 -70.79674 1569 ft 4 kts 354°
2026-05-07 20:25 -33.40394 -70.79676 1569 ft 0 kts 354°